Location: Colorado Springs
(38.8340°N, 104.8210°W)
Time: 01:50:43
(UTC-06:00)

OTV 5 (USA 277) - Pass Details

Date: 09 October 2017
Orbit: 404 x 417 km, 43.0° (Epoch: 07 September)

Event Time Altitude Azimuth Distance (km) Brightness Sun altitude
Rises 20:04:59 0° 242° (WSW) 2,346 ? -19.5°
Reaches altitude 10° 20:07:06 10° 240° (WSW) 1,485 ? -19.9°
Enters shadow 20:10:06 64° 202° (SSW) 463 ? -20.4°
